LAKE NATOMA (NIMBUS DAM) (NAT)

Elevation: 132' · AMERICAN R basin · Operator: US Bureau of Reclamation

Provisional data, subject to change.
Query executed Tuesday at 10:42:25   clock

Select a sensor type for a plot of data.
Note: Reservoir Flows are daily averages.

Earlier

Date RES ELE    STORAGE    RES CHG    OUTFLOW    INFLOW    SPILL    DIS PWR   
 FEET   AF   AF   CFS   CFS   CFS   CFS  
08/31/2014 123.83 8181 0 1522 1525 0 1482
09/01/2014 123.99 8256 75 1407 1448 0 1374
09/02/2014 123.96 8242 -14 1404 1400 0 1376
09/03/2014 123.84 8186 -56 1401 1376 0 1376
09/04/2014 123.81 8172 -14 1334 1330 456 853
09/05/2014 123.84 8186 14 1397 1406 0 1372
09/06/2014 123.77 8153 -33 1387 1372 0 1351
09/07/2014 124.01 8266 113 1396 1456 0 1354
09/08/2014 123.85 8191 -75 1394 1359 0 1352
09/09/2014 123.76 8148 -43 1406 1387 0 1364
09/10/2014 123.89 8209 61 1412 1446 0 1370
09/11/2014 123.35 7956 -253 1411 1286 0 1369
09/12/2014 122.67 7643 -313 1409 1254 0 1371
09/13/2014 122.36 7503 -140 1401 1333 0 1371
09/14/2014 123.37 7965 462 1401 1637 0 1371
09/15/2014 123.29 7927 -38 1401 1385 0 1371
09/16/2014 123.46 8007 80 1402 1445 0 1372
09/17/2014 123.78 8158 151 1403 1481 0 1373
09/18/2014 123.82 8176 18 1400 1411 0 1370
09/19/2014 123.48 8017 -159 1402 1324 0 1372
09/20/2014 123.36 7960 -57 1401 1374 0 1371
09/21/2014 123.39 7974 14 1402 1411 0 1372
09/22/2014 123.53 8040 66 1400 1435 0 1370
09/23/2014 124.35 8436 396 1401 1601 0 1371
09/24/2014 123.07 7824 -612 1402 1095 0 1372
09/25/2014 122.69 7652 -172 1402 1316 0 1372
09/26/2014 122.52 7575 -77 1401 1364 0 1371
09/27/2014 122.70 7656 81 1401 1445 0 1371
09/28/2014 122.27 7463 -193 1404 1308 0 1371
09/29/2014 121.67 7202 -261 1397 1267 0 1371
09/30/2014 -- -- -- -- -- -- --

Later | Latest

Warning! This data is preliminary and subject to revision.

Download Data Now Download Data Now | Show NAT Map | Plot NAT Data | 1 Month NAT Data | Real-Time NAT Data | NAT Info